Regional Weather Roundup
Issued by NWS

Home | Current Version | Previous Version | Graphics & Text | Print | Product List | Glossary On
Versions: 1 2 3 4 5 6 7 8 9 10 11 12 13 14 15 16 17 18 19 20 21 22 23 24 25 26 27 28 29 30 31 32 33 34 35 36 37 38 39 40 41 42 43 44 45 46 47 48 49 50
000
ASUS43 KDMX 071303
RWRIA

WEATHER ROUNDUP FOR IOWA
NATIONAL WEATHER SERVICE DES MOINES IA
700 AM CST SUN FEB 07 2016

NOTE: "FAIR" INDICATES FEW OR NO CLOUDS BELOW 12,000 FEET WITH NO
SIGNIFICANT WEATHER AND/OR OBSTRUCTIONS TO VISIBILITY.

* - THESE STATIONS ARE NOT NWS STATIONS...THUS NOT UNDER NWS
QUALITY CONTROL.  THEY ALSO DO NOT REPORT WEATHER SUCH
AS PRECIPITATION OR FOG.

IAZ001>003-012>014-020>022-031>034-043>046-071400-
   NORTHWEST IOWA

CITY           SKY/WX    TMP DP  RH WIND       PRES   REMARKS
CARROLL *      CLEAR     34  27  75 W15       29.87S WCI  24
CHEROKEE *     CLEAR     34  27  75 NW13G18   29.85F WCI  25
DENISON *      CLEAR     36  27  69 W14       29.88S WCI  27
LE MARS *      PTCLDY    34  23  64 W12       29.90S WCI  25
ORANGE CITY *  PTCLDY    34  28  80 W17       29.86S WCI  23
SHELDON *      MOCLDY    34  27  75 W17       29.82S WCI  23
SIOUX CITY     CLEAR     37  24  59 NW15      29.92R WCI  28
SPENCER        CLEAR     32  23  69 W20       29.81S WCI  20
STORM LAKE *   CLEAR     32  28  86 NW20      29.85R WCI  20
$$

IAZ055>058-069>071-079>083-090>094-071400-
   SOUTHWEST IOWA

CITY           SKY/WX    TMP DP  RH WIND       PRES   REMARKS
ATLANTIC *     CLOUDY    34  27  75 W9        29.91S WCI  26
AUDUBON *      CLOUDY    34  27  75 W8        29.90R WCI  27
CLARINDA *     PTCLDY    36  28  75 W9        29.97R WCI  29
COUNCIL BLFS * PTCLDY    39  25  56 NW14G22   29.93R WCI  31
CRESTON *      CLOUDY    32  28  86 W10       29.92S WCI  24
HARLAN  *      CLEAR     32  27  80 NW14      29.94S WCI  22
LAMONI         CLOUDY    34  28  79 W12       29.91S WCI  25
RED OAK *      PTCLDY    36  28  75 NW8       29.94S WCI  29
SHENANDOAH *   CLEAR     36  32  87 W7        29.98R WCI  30
$$

IAZ047>049-059>061-072>074-084-071400-
   CENTRAL IOWA

CITY           SKY/WX    TMP DP  RH WIND       PRES   REMARKS
AMES           CLEAR     35  27  72 W17       29.84S WCI  25
ANKENY *       CLOUDY    36  28  75 W13       29.86S WCI  27
BOONE *        CLEAR     34  27  75 W16G23    29.83S WCI  23
CHARITON *     CLOUDY    36  28  75 W13G20    29.89S WCI  27
DES MOINES     MOCLDY    37  27  67 NW14      29.87S WCI  28
GRINNELL*      PTCLDY    34  29  82 W10       29.84S WCI  26
KNOXVILLE *    CLOUDY    36  28  75 W14       29.86R WCI  27
MARSHALLTOWN   PTCLDY    32  26  78 W14       29.82R WCI  22
NEWTON *       MOCLDY    34  30  86 W10       29.84S WCI  26
PELLA *        CLOUDY    36  28  75 W10       29.87F WCI  28
$$

IAZ004>006-015-016-023>025-035-036-071400-
   NORTH CENTRAL IOWA

CITY           SKY/WX    TMP DP  RH WIND       PRES   REMARKS
ALGONA *       CLEAR     30  25  80 W13       29.78S WCI  20
CLARION *      CLEAR     28  25  86 W14       29.80S WCI  17
ESTHERVILLE    CLEAR     33  26  75 W25       29.78R WCI  20
FORT DODGE *   CLEAR     32  25  74 W7        29.83S WCI  26
MASON CITY     CLEAR     31  25  78 W20       29.76S WCI  19
FOREST CITY *    N/A     32  27  80 W15       29.76S WCI  22
WEBSTER CITY * CLEAR     28  25  86 W15       29.81R WCI  17
IOWA FALLS *     N/A     31  26  83 W15       29.82R WCI  20
$$

IAZ007>011-017>019-026>030-037>042-050>054-066-071400-
   NORTHEAST IOWA

CITY           SKY/WX    TMP DP  RH WIND       PRES   REMARKS
CEDAR RAPIDS   CLOUDY    35  30  82 SW14      29.80F WCI  26
CHARLES CITY * CLEAR     32  30  93 W13       29.76S WCI  22
CLINTON *      CLOUDY    35  29  78 SW15      29.82F WCI  25
DECORAH *      CLEAR     32  28  86 SW8       29.72S WCI  25
DUBUQUE        CLOUDY    34  28  79 SW15      29.76F WCI  24
MONTICELLO *   MOCLDY    36  30  80 SW12      29.78S WCI  27
OELWEIN *      CLEAR     32  28  86 SW13      29.77S WCI  22
WATERLOO       CLOUDY    32  26  78 W13       29.79S WCI  22
$$

IAZ064-065-067-068-078-071400-
   EAST CENTRAL IOWA

CITY           SKY/WX    TMP DP  RH WIND       PRES   REMARKS
DAVENPORT      CLOUDY    37  28  70 SW16G24   29.84R WCI  28
IOWA CITY      CLOUDY    37  29  72 SW9       29.85F WCI  30
MT. PLEASANT * CLOUDY    39  32  75 SW13      29.88R WCI  32
MUSCATINE *    MOCLDY    39  28  65 SW8       29.87R WCI  34
QUAD CITIES    CLOUDY    37  28  70 SW13      29.84R WCI  29
$$

IAZ062-063-075>077-085>089-095>099-071400-
   SOUTHEAST IOWA

CITY           SKY/WX    TMP DP  RH WIND       PRES   REMARKS
BURLINGTON     PTCLDY    37  29  72 SW16      29.87S WCI  28
FAIRFIELD *    CLOUDY    37  27  65 SW14      29.86S WCI  29
FORT MADISON * PTCLDY    37  28  70 SW12G17   29.89R WCI  30
KEOKUK *       PTCLDY    37  28  70 SW15      29.89R WCI  28
OSKALOOSA *      N/A     36  30  80 W13       29.86S WCI  27
OTTUMWA        CLOUDY    37  28  70 W14       29.86S WCI  28
WASHINGTON *   CLOUDY    37  30  75 SW15      29.86F WCI  28
$$

ABBREVIATIONS USED IN REMARKS
   TC - TEMPERATURES IN CELSIUS
  WCI - WIND CHILL INDEX
   HX - HEAT INDEX
  VSB - VISIBILITY
$$




USA.gov is the U.S. government's official web portal to all federal, state and local government web resources and services.